Hill City, KS

4:56 AM CDT on September 25, 2017 (GMT -0500)
Hill City Municipal

Weather History for KHLC - March, 2014

Change the Weather History Date:

Thursday, March 13, 2014

  Actual Average Record
Temperature  
Mean Temperature 48 °F 41 °F  
Max Temperature 71 °F 55 °F 83 °F (1971)
Min Temperature 26 °F 27 °F -1 °F (1975)
Degree Days  
Heating Degree Days 16    
Moisture  
Dew Point 15 °F    
Average Humidity 37    
Maximum Humidity 71    
Minimum Humidity 6    
Precipitation  
Precipitation 0.00 in 0.05 in 0.00 in (2017)
Month to date precipitation 0.56  
Year to date precipitation 1.53  
Sea Level Pressure  
Sea Level Pressure 29.96 in    
Wind  
Wind Speed 9 mph (WSW)    
Max Wind Speed 18 mph    
Max Gust Speed 30 mph    
Visibility 10 miles    
Events      
T = Trace of Precipitation, MM = Missing Value Source: NWS Daily Summary

Daily Weather History Graph

Daily Weather History Graph

Search for Another Location

Airport or City:

Trip Planner

Search our weather history database for the weather conditions in past years. The results will help you decide how hot, cold, wet, or windy it might be!

Date:

Astronomy

Mar. 13, 2014 Rise Set
Actual Time 7:53 AM CDT 7:44 PM CDT
Civil Twilight 7:27 AM CDT 8:11 PM CDT
Nautical Twilight 6:55 AM CDT 8:42 PM CDT
Astronomical Twilight 6:24 AM CDT 9:13 PM CDT
Moon 5:12 PM CDT (3/13) 6:00 AM CDT (3/13)
Length of Visible Light 12h 44m
Length of Day
11h 50m
Waxing Gibbous, 91% of the Moon is Illuminated
Mar 13
Waxing Gibbous
Mar 16
Full
Mar 23
Last Quarter
Mar 30
New
Apr 7
First Quarter

Hourly Weather History & Observations

Time (CDT) Temp. Windchill Dew Point Humidity Pressure Visibility Wind Dir Wind Speed Gust Speed Precip Events Conditions
12:53 AM 32.0 °F 25.6 °F 19.9 °F 61% 30.18 in 10.0 mi West 6.9 mph - N/A   Clear
1:53 AM 30.9 °F 22.8 °F 19.9 °F 64% 30.17 in 10.0 mi West 9.2 mph - N/A   Clear
2:53 AM 30.0 °F 22.4 °F 19.0 °F 64% 30.16 in 10.0 mi West 8.1 mph - N/A   Clear
3:53 AM 30.0 °F 23.2 °F 19.0 °F 64% 30.15 in 10.0 mi WSW 6.9 mph - N/A   Clear
4:53 AM 30.0 °F 23.2 °F 19.0 °F 64% 30.14 in 10.0 mi West 6.9 mph - N/A   Clear
5:53 AM 28.0 °F 21.7 °F 18.0 °F 66% 30.13 in 10.0 mi West 5.8 mph - N/A   Clear
6:53 AM 26.1 °F 17.6 °F 18.0 °F 71% 30.13 in 10.0 mi West 8.1 mph - N/A   Clear
7:53 AM 27.0 °F 21.6 °F 18.0 °F 69% 30.13 in 10.0 mi West 4.6 mph - N/A   Clear
8:53 AM 30.9 °F 24.3 °F 19.9 °F 64% 30.12 in 10.0 mi WSW 6.9 mph - N/A   Clear
9:53 AM 39.0 °F 35.7 °F 21.9 °F 50% 30.11 in 10.0 mi WSW 4.6 mph - N/A   Clear
10:53 AM 48.0 °F - 23.0 °F 37% 30.09 in 10.0 mi Calm Calm - N/A   Clear
11:53 AM 61.0 °F - 18.0 °F 19% 30.04 in 10.0 mi SSW 11.5 mph - N/A   Clear
12:53 PM 64.0 °F - 12.0 °F 13% 29.99 in 10.0 mi SSW 12.7 mph 20.7 mph N/A   Clear
1:53 PM 68.0 °F - 9.0 °F 10% 29.94 in 10.0 mi SW 16.1 mph 24.2 mph N/A   Clear
2:53 PM 70.0 °F - 8.1 °F 9% 29.87 in 10.0 mi SSW 17.3 mph 24.2 mph N/A   Clear
3:53 PM 70.0 °F - 6.1 °F 8% 29.83 in 10.0 mi SSW 18.4 mph 29.9 mph N/A   Clear
4:53 PM 71.1 °F - 3.0 °F 7% 29.78 in 10.0 mi SSW 17.3 mph 25.3 mph N/A   Clear
5:53 PM 71.1 °F - 1.0 °F 6% 29.75 in 10.0 mi SSW 16.1 mph 25.3 mph N/A   Clear
6:53 PM 69.1 °F - 12.9 °F 11% 29.73 in 10.0 mi SSW 11.5 mph 21.9 mph N/A   Clear
7:53 PM 63.0 °F - 15.1 °F 16% 29.72 in 10.0 mi South 13.8 mph - N/A   Clear
8:53 PM 53.1 °F - 16.0 °F 23% 29.72 in 10.0 mi WSW 3.5 mph - N/A   Clear
9:53 PM 46.9 °F - 17.1 °F 30% 29.72 in 10.0 mi West 8.1 mph - N/A   Clear
10:53 PM 46.9 °F - 18.0 °F 32% 29.73 in 10.0 mi West 10.4 mph - N/A   Clear
11:53 PM 48.0 °F - 17.1 °F 29% 29.71 in 10.0 mi West 6.9 mph - N/A   Clear